Location: Aalsmeerderbrug
(52.2704°N, 4.7500°E)
Time: 00:16:14
(UTC+00:00)

Daily predictions for brighter satellites

Satellite Brightness Start Highest point End
(mag) Time Altitude Azimuth Time Altitude Azimuth Time Altitude Azimuth
ATLAS 2AS CENTAUR R/B 4.2 00:03:25 10° WNW 00:10:33 36° N 00:17:19 10° ENE
CZ-4C R/B 4.1 00:30:27 26° NW 00:32:31 31° N 00:38:44 10° ENE
SJ 16-02 4.2 00:37:09 10° N 00:39:20 15° NE 00:39:20 15° NE
Cosmos 2297 Rocket 4.4 00:36:53 10° NW 00:38:13 18° NW 00:38:13 18° NW
USA 234 3.7 00:37:46 10° E 00:43:28 57° NNE 00:43:28 57° NNE
Cosmos 2369 Rocket 4.2 00:52:18 21° NNW 00:52:18 21° NNW 00:56:29 10° NNE
Cosmos 1697 Rocket 4.3 00:59:13 29° ENE 00:59:13 29° ENE 01:02:27 10° NE
Cosmos 2263 Rocket 3.6 00:57:41 10° NNW 01:02:53 35° NE 01:03:49 33° ENE
Cosmos 1980 Rocket 4.0 01:05:33 23° E 01:05:33 23° E 01:09:00 10° NE
Lacrosse 5 3.7 01:22:28 26° ENE 01:22:28 26° ENE 01:24:42 10° ENE
Resurs 1-4 Rocket 3.1 01:23:18 10° NNE 01:26:56 44° NNE 01:26:56 44° NNE
SL-16 R/B 3.4 01:35:43 39° NW 01:35:43 39° NW 01:39:34 10° NNW
CZ-2D R/B 2.9 01:29:50 10° NNE 01:33:36 47° NNE 01:33:36 47° NNE
NOSS 3-4 (A) 4.5 01:32:47 10° NW 01:39:16 50° NNE 01:46:28 10° ESE
NOSS 3-4 (C) 4.5 01:32:53 10° NW 01:39:22 50° NNE 01:46:34 10° ESE
ARIANE 5 R/B 4.1 01:45:01 10° NE 01:49:16 26° E 01:50:05 25° ESE
Cosmos 1821 Rocket 4.0 01:47:23 10° N 01:53:04 73° NNW 01:53:04 73° NNW
NPP 4.0 01:50:50 10° NNE 01:55:12 59° N 01:55:12 59° N
ATLAS 5 CENTAUR R/B 3.3 01:57:35 30° N 01:57:35 30° N 02:01:36 10° NE
Cosmos 1934 Rocket 4.2 01:51:36 10° N 01:57:38 63° ENE 01:58:47 53° ESE
IRS-1D 3.9 01:57:11 10° NNE 02:02:07 65° ENE 02:02:07 65° ENE
ATLAS 2AS CENTAUR R/B 3.5 01:55:30 10° NW 02:03:06 56° NNE 02:10:07 10° ESE
CBERS-1 4.3 02:00:37 10° NNE 02:05:13 63° ENE 02:05:13 63° ENE
Cosmos 44 4.2 02:08:32 42° ENE 02:08:32 42° ENE 02:12:00 10° NE
Cosmos 2278 3.8 02:10:19 73° ESE 02:10:19 73° ESE 02:15:53 10° NNE
ADEOS II 2.1 02:13:12 10° NNE 02:18:19 80° ENE 02:18:19 80° ENE
SJ 16-02 3.3 02:14:37 10° NNW 02:16:15 22° NNW 02:16:15 22° NNW
IDEFIX/ARIANE 42P 3.8 02:15:29 10° NNE 02:20:24 38° E 02:22:24 28° SE
Cosmos 2369 3.7 02:20:39 72° NW 02:20:39 72° NW 02:26:16 10° NNE
Meteor 1-14 Rocket 4.1 02:14:52 10° NNW 02:20:21 85° NNW 02:20:21 85° NNW
SL-4 R/B 4.2 02:21:54 20° ESE 02:21:54 20° ESE 02:24:37 10° E
CZ-4C R/B 3.9 02:16:35 10° NW 02:22:42 41° NNE 02:29:55 10° E
Cosmos 389 Rocket 4.4 02:28:18 29° NNE 02:28:18 29° NNE 02:30:13 10° NNE
USA 234 3.2 02:20:25 10° ESE 02:26:58 83° NNE 02:30:48 27° WNW
Nadezhda 3 Rocket 3.8 02:27:57 70° W 02:28:15 72° WNW 02:34:26 10° N
Cosmos 1238 Rocket 3.8 02:25:25 10° NNW 02:32:02 83° W 02:33:16 60° S
Cosmos 1605 Rocket 4.2 02:25:49 10° N 02:32:15 74° ENE 02:37:19 17° SSE
Cosmos 972 4.4 02:32:56 74° ESE 02:32:59 74° ESE 02:37:54 10° NNE
Cosmos 2228 Rocket 3.6 02:33:13 53° ESE 02:33:24 53° E 02:37:45 10° NNE
CZ-4B R/B 3.5 02:29:35 10° NNE 02:34:35 74° NW 02:34:35 74° NW
Cosmos 1535 Rocket 4.4 02:28:19 10° NNW 02:34:44 80° W 02:36:27 52° S
Cosmos 1782 3.8 02:36:38 42° N 02:36:38 42° N 02:39:23 10° N
USA 305 3.4 02:36:27 57° ENE 02:36:27 57° ENE 02:39:54 10° ENE
Cosmos 2360 Rocket 4.5 02:34:39 10° SE 02:38:28 19° E 02:42:18 10° ENE
IRS-P3 Rocket 4.5 02:33:51 10° NNE 02:39:19 85° WNW 02:39:50 73° SW
H-2A R/B 3.5 02:35:11 10° SE 02:39:19 39° ENE 02:43:31 10° N
USA 306 3.3 02:40:43 62° ENE 02:40:43 62° ENE 02:44:20 10° ENE
Cosmos 1697 Rocket 3.0 02:40:57 49° WNW 02:41:11 49° NW 02:46:40 10° NNE
ATLAS CENTAUR R/B 3.9 02:29:18 10° WNW 02:43:51 67° N 02:49:04 10° E
Meteor 1-4 Rocket 3.9 02:46:55 35° ESE 02:47:05 35° E 02:50:22 10° NNE
Cosmos 2263 Rocket 2.8 02:41:34 10° NW 02:45:19 40° WNW 02:45:19 40° WNW
Cosmos 1980 Rocket 2.1 02:47:19 63° WSW 02:48:01 71° WNW 02:53:43 10° NNE
ASTEX 1 3.4 02:45:20 10° N 02:50:23 86° E 02:51:25 57° S
Cosmos 1844 Rocket 3.6 02:45:47 10° NNW 02:51:16 48° NE 02:56:44 10° SE
Cosmos 2360 4.4 02:51:11 50° WNW 02:51:54 53° NW 02:57:32 10° NNE
Cosmos 972 Rocket 4.4 02:55:40 43° NW 02:55:40 43° NW 03:00:25 10° NNE
Cosmos 1898 Rocket 3.3 02:50:19 10° NNW 02:55:35 81° WSW 03:00:53 10° SSE
SL-08 R/B 4.1 02:57:48 35° NW 02:57:48 35° NW 03:00:45 10° NNW
Meteor 2-9 4.5 02:51:08 10° NNW 02:56:36 68° W 02:57:41 53° SSW
Cosmos 2322 Rocket 3.2 02:54:20 22° SSE 02:57:36 43° ESE 03:02:58 10° NE
Cosmos 1666 3.2 02:54:10 10° N 02:57:58 58° ENE 02:59:07 39° SE
Spot 4 Rocket 4.3 02:53:27 10° NNE 02:58:35 66° ESE 03:01:00 31° S
Meteor 1-11 Rocket 3.9 02:54:05 10° N 02:59:54 74° ENE 03:05:32 10° SSE
Cosmos 858 Rocket 4.4 02:57:01 10° NNW 03:02:15 86° ENE 03:07:28 10° SSE
Lacrosse 5 2.1 03:01:39 48° WNW 03:02:46 60° NNW 03:07:48 10° ENE
IRS-1C 4.1 02:58:40 10° NNE 03:04:00 69° WNW 03:05:14 51° SW
Cosmos 921 Rocket 2.7 03:05:07 79° W 03:05:15 81° WNW 03:09:30 10° NNE
Resurs 1-4 Rocket 3.5 03:03:52 10° N 03:07:57 23° NW 03:08:01 23° WNW
Cosmos 1812 2.6 03:08:14 77° SSE 03:08:28 84° E 03:12:21 10° NNE
USA 307 2.9 03:08:53 63° WNW 03:09:26 72° N 03:13:41 10° ENE
SL-16 R/B 2.6 03:06:39 29° S 03:09:33 62° ESE 03:15:10 10° NE
IRIDIUM 104 4.3 03:05:17 10° N 03:10:33 86° E 03:15:23 12° S
ERBS 2.5 03:12:22 67° E 03:12:22 67° E 03:15:21 10° ENE
Cosmos 2100 Rocket 4.5 03:05:54 10° N 03:12:16 63° ENE 03:18:34 10° SSE
USA 308 3.0 03:12:08 58° WNW 03:12:49 72° N 03:17:05 10° ENE
CZ-2D R/B 3.5 03:10:45 10° N 03:14:40 22° NW 03:14:55 21° WNW
Cosmos 1937 Rocket 3.3 03:09:58 10° NNW 03:15:07 77° WSW 03:20:15 10° SSE
Cosmos 1727 Rocket 4.2 03:09:26 11° S 03:15:34 72° E 03:21:52 10° NNE
Cosmos 1339 Rocket 4.4 03:12:47 31° SSW 03:15:57 74° WNW 03:22:08 10° N
Cosmos 1459 Rocket 4.4 03:10:24 10° N 03:16:27 61° ENE 03:22:25 10° SSE
IRIDIUM 114 4.2 03:14:26 10° N 03:19:42 81° W 03:24:29 12° S
FALCON 9 DEB 4.0 03:20:10 37° SSE 03:20:13 37° SSE 03:23:25 10° E
CZ-4C R/B 2.9 03:20:03 48° S 03:20:57 87° WSW 03:24:29 10° NNW
Cosmos 1536 2.9 03:18:54 10° N 03:23:00 79° E 03:27:04 10° SSE
CZ-2D R/B 3.5 03:21:57 10° N 03:26:11 67° WNW 03:27:24 44° SW
USA 32 4.0 03:22:49 10° N 03:28:07 90° ENE 03:33:23 10° S
Cosmos 1763 Rocket 3.5 03:25:16 27° SSW 03:28:17 83° ESE 03:33:37 10° NNE
ARIANE 5 R/B 2.6 03:23:43 10° N 03:28:42 54° WNW 03:30:25 37° WSW
IRIDIUM 103 4.2 03:23:37 10° N 03:28:50 69° W 03:33:37 12° S
NOSS 3-4 (A) 3.8 03:23:43 10° NW 03:30:32 64° SW 03:38:05 10° SSE
NOSS 3-4 (C) 3.8 03:23:49 10° NW 03:30:38 65° SW 03:38:12 10° SSE
USA 267 3.4 03:26:18 10° ENE 03:32:49 67° SE 03:36:57 24° SW
Cosmos 1707 Rocket 3.5 03:32:27 19° S 03:35:29 84° E 03:39:53 10° NNE
ADEOS Rocket 3.1 03:32:55 10° SSE 03:39:23 79° ENE 03:45:15 10° NNW
CZ-4B R/B 2.6 03:38:57 10° SE 03:42:02 44° ENE 03:45:13 10° N
NOSS 3-3 (A) 4.1 03:38:58 29° WSW 03:42:19 70° NW 03:49:17 10° NE
NOSS 3-3 (C) 4.1 03:39:06 29° WSW 03:42:26 70° NW 03:49:23 10° NE
ATLAS 5 CENTAUR R/B 3.8 03:39:11 10° NW 03:43:07 24° N 03:47:34 10° ENE
ERS-2 2.0 03:39:37 10° SSE 03:43:17 88° ENE 03:46:59 10° NNW
MSX 3.8 03:37:49 10° NNE 03:43:37 75° WNW 03:48:33 15° SSW
Cosmos 540 Rocket 3.9 03:38:54 10° S 03:43:57 62° ESE 03:49:05 10° NNE
Cosmos 1733 Rocket 2.9 03:41:50 10° NNW 03:46:12 82° W 03:50:32 10° S
IRIDIUM 106 4.5 03:42:03 10° NNW 03:47:06 50° W 03:51:58 11° SSW
Cosmos 1544 4.4 03:44:05 10° N 03:47:32 41° ENE 03:50:56 10° SE
Cosmos 44 Rocket 3.8 03:44:48 17° SSW 03:48:22 55° SE 03:53:10 10° NE
Cosmos 44 4.1 03:46:58 26° WNW 03:48:50 36° NNW 03:53:18 10° NE
Cosmos 1743 3.1 03:45:06 10° N 03:48:53 63° ENE 03:52:40 10° SSE
PAYLOAD A 3.9 03:46:31 10° NNE 03:51:15 79° ESE 03:55:57 10° SSW
ATLAS 2AS CENTAUR R/B 2.9 03:46:53 10° NW 03:54:14 57° SW 04:01:00 10° SSE
Cosmos 2173 Rocket 4.0 03:47:57 10° NNW 03:54:18 77° W 04:00:40 10° S
Meteor 1-10 Rocket 4.5 03:51:45 19° SW 03:55:54 53° WNW 04:01:43 10° N
CZ-2C R/B 3.0 03:53:17 10° N 03:56:58 49° WNW 03:58:54 25° SW
Landsat 5 3.9 03:52:41 10° S 03:56:58 43° W 04:01:12 10° NNW
ADEOS II 3.5 03:53:47 10° N 03:57:39 21° NW 03:59:15 18° W
Cosmos 2333 Rocket 4.1 03:52:49 10° SSE 03:57:47 31° ESE 04:02:45 10° NE
IDEFIX/ARIANE 42P 3.1 03:55:07 10° N 04:00:02 41° WNW 04:03:12 20° WSW
SL-4 R/B 2.6 03:57:30 24° SW 04:00:09 59° SSE 04:04:53 10° E
PSLV R/B 3.4 03:56:21 10° NNE 04:00:35 90° NE 04:04:46 10° SSW
Cosmos 468 Rocket 4.2 03:59:52 21° SW 04:03:16 52° WNW 04:08:26 10° NNE
BREEZE-M DEB (TANK) 4.0 03:59:36 16° SW 04:03:44 30° S 04:06:34 10° ESE
USA 276 3.2 04:03:18 27° SW 04:03:46 28° SSW 04:06:35 10° SE
Cosmos 1570 Rocket 4.1 03:58:52 10° SSW 04:04:12 85° ESE 04:09:37 10° NNE
BREEZE-M DEB (TANK) 3.7 04:08:00 22° WSW 04:10:04 60° SSE 04:18:44 10° E
USA 234 3.5 04:04:06 10° SSE 04:10:21 46° SW 04:16:36 10° WNW
Cosmos 1862 Rocket 3.5 04:05:58 10° S 04:10:21 87° WNW 04:14:44 10° N
Cosmos 2228 Rocket 4.4 04:10:44 19° W 04:11:58 21° WNW 04:15:24 10° NNW
CZ-4C R/B 3.0 04:05:06 10° NW 04:12:04 88° NE 04:20:15 10° SE
Exosat Rocket 4.5 04:07:58 10° NNW 04:14:11 85° ENE 04:23:05 10° SSE
ALOS 3.2 04:09:48 10° NNE 04:14:22 50° E 04:18:54 10° S
H-2A R/B 2.9 04:11:26 10° SSW 04:15:22 30° W 04:19:22 10° NNW
USA 305 3.0 04:12:36 17° WNW 04:15:51 71° N 04:20:06 10° E
SAR-Lupe-4 3.5 04:12:41 10° SSE 04:16:16 87° WSW 04:19:54 10° NNW
FENGYUN 3A 4.4 04:11:22 10° NNE 04:16:42 56° E 04:21:59 10° S
Cosmos 1689 Rocket 3.2 04:15:19 10° SSE 04:18:12 48° ENE 04:21:07 10° N
COSMOS 2455 3.5 04:14:08 10° NW 04:20:07 58° NE 04:26:05 10° SE
USA 306 3.0 04:16:52 15° WNW 04:20:17 72° N 04:24:33 10° E
Cosmos 2360 Rocket 2.2 04:16:03 10° SSW 04:21:44 88° WNW 04:27:27 10° NNE
CZ-2C R/B 2.5 04:17:02 10° N 04:22:10 67° WNW 04:27:18 10° SSW
Meteor 1-4 Rocket 3.9 04:21:08 18° W 04:22:14 21° WNW 04:25:01 10° NNW
Cosmos 1975 3.2 04:18:21 10° N 04:22:23 68° ENE 04:26:21 10° SSE
Cosmos 372 Rocket 4.3 04:21:16 10° NW 04:26:05 41° WSW 04:30:52 10° S
Cosmos 2016 Rocket 3.9 04:20:02 10° NNW 04:26:06 66° W 04:32:07 10° S
Cosmos 1484 Rocket 3.1 04:27:42 10° NNE 04:31:43 75° ESE 04:35:44 10° S
Cosmos 2061 Rocket 4.1 04:26:34 10° NNW 04:32:54 62° W 04:39:13 10° S
Cosmos 1980 Rocket 3.7 04:29:06 11° W 04:33:04 21° NNW 04:37:21 10° NNE
Cosmos 1666 4.4 04:30:55 10° NW 04:33:04 15° W 04:33:52 14° W
Cosmos 1844 Rocket 3.1 04:29:54 10° NW 04:35:05 38° WSW 04:40:16 10° S
SAR-Lupe-1 4.1 04:31:50 10° S 04:35:21 57° WSW 04:38:55 10° NNW
Cosmos 2233 Rocket 4.1 04:29:39 10° N 04:35:50 85° E 04:41:59 10° S
Cosmos 1515 3.8 04:34:58 10° S 04:38:45 82° E 04:42:33 10° NNE
Cosmos 2278 Rocket 2.7 04:34:35 10° NNW 04:40:15 65° NE 04:45:52 10° SE
Cosmos 2322 Rocket 2.7 04:36:15 10° WSW 04:41:41 44° NW 04:47:10 10° NNE
Cosmos 1844 4.1 04:38:45 10° NW 04:43:54 39° WSW 04:49:00 10° S
Meteor 1-31 Rocket 2.9 04:40:47 10° NNE 04:44:38 82° ESE 04:48:30 10° SSW
Lacrosse 5 2.5 04:41:22 10° WNW 04:46:19 51° N 04:51:16 10° E
Aureole 2 Rocket 3.6 04:43:28 10° NNW 04:46:22 39° ENE 04:49:06 10° SE
Okean 1 3.3 04:42:46 10° SSW 04:46:48 65° WNW 04:50:51 10° N
ERBS 3.2 04:45:17 10° W 04:48:28 38° N 04:51:40 10° ENE
Cosmos 1725 Rocket 4.1 04:42:42 10° NNW 04:48:44 55° W 04:54:43 10° SSW
COSMO-SKYMED 1 2.6 04:44:43 10° SSE 04:49:03 84° WSW 04:53:27 10° NNW
Meteor 2-9 Rocket 4.1 04:44:08 10° NNW 04:49:37 68° W 04:54:56 10° S
USA 307 3.0 04:45:25 10° WNW 04:49:41 81° NNE 04:53:57 10° ESE
Cosmos 2298 Rocket 4.5 04:45:59 10° NW 04:50:54 39° WSW 04:55:46 10° S
deb Chang Zheng 4 3.6 04:47:22 10° N 04:51:38 64° WNW 04:55:51 10° SSW
USA 308 3.0 04:48:47 10° WNW 04:53:04 83° NNE 04:57:21 10° ESE
Cosmos 1437 Rocket 3.0 04:49:54 10° SSW 04:53:36 47° WNW 04:57:24 10° N
SL-16 R/B 3.1 04:48:56 10° WSW 04:54:02 33° NW 04:59:10 10° NNE
FALCON 9 DEB 3.1 04:53:38 10° W 04:57:04 85° N 05:00:32 10° E
Cosmos 1782 Rocket 3.6 04:55:37 10° NNW 05:00:04 66° W 05:04:30 10° S
Cosmos 1908 Rocket 4.1 04:57:04 10° NNW 05:01:14 39° W 05:05:23 10° SSW
